| time (UTC) | temp C | wind direction | speed KPH | gust KPH | rain 1hr cm | rain 24hr cm | rain mn cm | humidity % | barometer mb |
| 20260506231530 | 11 | 297 | 3.2 | 6.4 | 0.00 | 6.60 | 1.78 | 64 | 1014.2 |
| 20260506231021 | 11 | 282 | 3.2 | 4.8 | 0.00 | 6.68 | 1.78 | 64 | 1014.2 |
| 20260506230525 | 11 | 279 | 4.8 | 8.0 | 0.00 | 6.73 | 1.78 | 62 | 1014.2 |
| 20260506230023 | 11 | 287 | 6.4 | 11.3 | 0.00 | 6.78 | 1.78 | 62 | 1014.5 |
| 20260506225516 | 11 | 269 | 4.8 | 9.7 | 0.00 | 6.83 | 1.78 | 61 | 1014.5 |
| 20260506225020 | 11 | 278 | 6.4 | 9.7 | 0.00 | 6.86 | 1.78 | 60 | 1014.5 |
| 20260506224518 | 11 | 294 | 8.0 | 14.5 | 0.00 | 6.88 | 1.78 | 60 | 1014.5 |
| 20260506224017 | 11 | 285 | 8.0 | 12.9 | 0.00 | 6.88 | 1.78 | 59 | 1014.5 |
| 20260506223521 | 11 | 292 | 6.4 | 8.0 | 0.00 | 6.91 | 1.78 | 59 | 1014.5 |
| 20260506223031 | 11 | 277 | 6.4 | 11.3 | 0.00 | 6.91 | 1.78 | 59 | 1014.5 |
| 20260506222523 | 11 | 263 | 6.4 | 11.3 | 0.00 | 6.91 | 1.78 | 58 | 1014.2 |
| 20260506222015 | 11 | 265 | 6.4 | 11.3 | 0.00 | 6.91 | 1.78 | 59 | 1014.2 |
| 20260506221525 | 11 | 302 | 6.4 | 9.7 | 0.00 | 6.91 | 1.78 | 59 | 1014.2 |
| 20260506221017 | 11 | 277 | 6.4 | 11.3 | 0.00 | 6.93 | 1.78 | 58 | 1014.1 |
| 20260506220528 | 11 | 291 | 8.0 | 11.3 | 0.00 | 6.93 | 1.78 | 58 | 1014.1 |
| 20260506220019 | 11 | 322 | 6.4 | 11.3 | 0.00 | 6.93 | 1.78 | 58 | 1014.1 |
| 20260506215530 | 11 | 295 | 6.4 | 9.7 | 0.00 | 6.93 | 1.78 | 59 | 1014.1 |
| 20260506215022 | 11 | 324 | 3.2 | 4.8 | 0.00 | 6.96 | 1.78 | 60 | 1014.1 |
| 20260506214532 | 11 | 265 | 4.8 | 9.7 | 0.00 | 6.96 | 1.78 | 59 | 1014.1 |
| 20260506214024 | 11 | 280 | 4.8 | 8.0 | 0.00 | 6.96 | 1.78 | 58 | 1014.1 |
| 20260506213516 | 11 | 270 | 6.4 | 9.7 | 0.00 | 6.99 | 1.78 | 57 | 1013.8 |
| 20260506213026 | 11 | 257 | 8.0 | 11.3 | 0.00 | 7.01 | 1.78 | 58 | 1013.8 |
| 20260506212518 | 11 | 38 | 3.2 | 9.7 | 0.00 | 7.01 | 1.78 | 59 | 1013.8 |
| 20260506212028 | 11 | 273 | 6.4 | 11.3 | 0.00 | 7.06 | 1.78 | 57 | 1013.8 |
| 20260506211520 | 12 | 5 | 6.4 | 9.7 | 0.00 | 7.11 | 1.78 | 57 | 1013.8 |
| 20260506211031 | 12 | 289 | 6.4 | 11.3 | 0.00 | 7.19 | 1.78 | 58 | 1013.8 |
| 20260506210523 | 12 | 281 | 6.4 | 19.3 | 0.00 | 7.21 | 1.78 | 58 | 1013.8 |
| 20260506210033 | 12 | 284 | 6.4 | 11.3 | 0.00 | 7.24 | 1.78 | 58 | 1013.7 |
| 20260506205525 | 12 | 282 | 4.8 | 9.7 | 0.00 | 7.26 | 1.78 | 58 | 1013.7 |
| 20260506205017 | 11 | 276 | 4.8 | 8.0 | 0.00 | 7.29 | 1.78 | 59 | 1013.7 |
| 20260506204527 | 11 | 302 | 4.8 | 8.0 | 0.00 | 7.34 | 1.78 | 60 | 1013.7 |
| 20260506204019 | 11 | 281 | 6.4 | 11.3 | 0.00 | 7.42 | 1.78 | 58 | 1013.7 |
| 20260506203529 | 11 | 330 | 6.4 | 9.7 | 0.00 | 7.62 | 1.78 | 56 | 1013.7 |
| 20260506203022 | 11 | 309 | 4.8 | 8.0 | 0.00 | 7.82 | 1.78 | 57 | 1013.7 |
| 20260506202526 | 12 | 291 | 6.4 | 12.9 | 0.00 | 8.08 | 1.78 | 55 | 1013.6 |
| 20260506202024 | 12 | 282 | 9.7 | 14.5 | 0.00 | 8.13 | 1.78 | 56 | 1013.6 |
| 20260506201516 | 12 | 303 | 4.8 | 9.7 | 0.00 | 8.13 | 1.78 | 57 | 1013.6 |
| 20260506201020 | 12 | 321 | 6.4 | 11.3 | 0.00 | 8.13 | 1.78 | 55 | 1013.5 |
| 20260506200518 | 12 | 308 | 6.4 | 11.3 | 0.00 | 8.13 | 1.78 | 57 | 1013.5 |
| 20260506200017 | 12 | 288 | 8.0 | 12.9 | 0.00 | 8.13 | 1.78 | 58 | 1013.6 |
| 20260506195521 | 12 | 299 | 4.8 | 8.0 | 0.00 | 8.13 | 1.78 | 58 | 1013.7 |
| 20260506195031 | 12 | 280 | 6.4 | 9.7 | 0.00 | 8.13 | 1.78 | 58 | 1013.8 |
| 20260506194523 | 12 | 268 | 8.0 | 12.9 | 0.00 | 8.13 | 1.78 | 58 | 1013.8 |
| 20260506194015 | 12 | 294 | 6.4 | 12.9 | 0.00 | 8.13 | 1.78 | 59 | 1013.8 |
| 20260506193525 | 12 | 265 | 8.0 | 12.9 | 0.00 | 8.13 | 1.78 | 58 | 1013.8 |
| 20260506193017 | 12 | 277 | 6.4 | 9.7 | 0.00 | 8.13 | 1.78 | 57 | 1013.8 |
| 20260506192527 | 12 | 276 | 6.4 | 16.1 | 0.00 | 8.13 | 1.78 | 57 | 1013.7 |
| 20260506192019 | 12 | 270 | 6.4 | 9.7 | 0.00 | 8.13 | 1.78 | 58 | 1013.6 |
| 20260506191530 | 12 | 277 | 6.4 | 9.7 | 0.00 | 8.13 | 1.78 | 58 | 1013.6 |
| 20260506191022 | 12 | 280 | 8.0 | 14.5 | 0.00 | 8.13 | 1.78 | 58 | 1013.6 |
| 20260506190532 | 12 | 309 | 6.4 | 9.7 | 0.00 | 8.13 | 1.78 | 58 | 1013.6 |
| 20260506190024 | 12 | 293 | 8.0 | 11.3 | 0.00 | 8.13 | 1.78 | 58 | 1013.5 |
| 20260506185516 | 12 | 268 | 8.0 | 11.3 | 0.00 | 8.13 | 1.78 | 58 | 1013.5 |
| 20260506185026 | 12 | 246 | 9.7 | 12.9 | 0.00 | 8.13 | 1.78 | 58 | 1013.5 |
| 20260506184518 | 12 | 276 | 8.0 | 9.7 | 0.00 | 8.13 | 1.78 | 59 | 1013.5 |
| 20260506184028 | 12 | 253 | 1.6 | 8.0 | 0.00 | 8.15 | 1.78 | 61 | 1013.5 |
| 20260506183521 | 12 | 317 | 4.8 | 8.0 | 0.00 | 8.15 | 1.78 | 60 | 1013.5 |
| 20260506183030 | 12 | 226 | 3.2 | 4.8 | 0.00 | 8.15 | 1.78 | 60 | 1013.5 |
| 20260506182524 | 12 | 261 | 4.8 | 9.7 | 0.00 | 8.15 | 1.78 | 61 | 1013.6 |
| 20260506182033 | 12 | 236 | 3.2 | 6.4 | 0.00 | 8.15 | 1.78 | 61 | 1013.7 |
| 20260506181525 | 12 | 277 | 6.4 | 9.7 | 0.00 | 8.15 | 1.78 | 61 | 1013.7 |
| 20260506181017 | 12 | 72 | 4.8 | 9.7 | 0.00 | 8.15 | 1.78 | 63 | 1013.8 |
| 20260506180527 | 12 | 114 | 3.2 | 4.8 | 0.00 | 8.15 | 1.78 | 61 | 1013.8 |
| 20260506180020 | 12 | 313 | 4.8 | 8.0 | 0.00 | 8.15 | 1.78 | 59 | 1013.7 |
| 20260506175530 | 12 | 320 | 6.4 | 14.5 | 0.00 | 8.15 | 1.78 | 59 | 1013.6 |
| 20260506175022 | 12 | 284 | 6.4 | 9.7 | 0.00 | 8.15 | 1.78 | 58 | 1013.6 |
| 20260506174526 | 12 | 185 | 3.2 | 6.4 | 0.00 | 8.15 | 1.78 | 60 | 1013.5 |
| 20260506174024 | 13 | 284 | 8.0 | 12.9 | 0.00 | 8.15 | 1.78 | 57 | 1013.5 |
| 20260506173516 | 13 | 279 | 11.3 | 17.7 | 0.00 | 8.15 | 1.78 | 55 | 1013.4 |
| 20260506173020 | 13 | 273 | 8.0 | 14.5 | 0.00 | 8.15 | 1.78 | 57 | 1013.4 |
| 20260506172518 | 13 | 283 | 8.0 | 14.5 | 0.00 | 8.15 | 1.78 | 56 | 1013.5 |
| 20260506172016 | 14 | 297 | 8.0 | 14.5 | 0.00 | 8.15 | 1.78 | 57 | 1013.6 |
| 20260506171520 | 14 | 279 | 11.3 | 14.5 | 0.00 | 8.15 | 1.78 | 57 | 1013.6 |
| 20260506171031 | 15 | 273 | 11.3 | 20.9 | 0.00 | 8.15 | 1.78 | 57 | 1013.7 |
| 20260506170523 | 15 | 14 | 8.0 | 14.5 | 0.00 | 8.15 | 1.78 | 56 | 1013.7 |
| 20260506170015 | 15 | 281 | 9.7 | 12.9 | 0.00 | 8.15 | 1.78 | 57 | 1013.5 |
| 20260506165525 | 15 | 248 | 6.4 | 12.9 | 0.00 | 8.15 | 1.78 | 57 | 1013.5 |
| 20260506165017 | 13 | 147 | 4.8 | 9.7 | 0.00 | 8.15 | 1.78 | 60 | 1013.4 |
| 20260506164528 | 13 | 242 | 6.4 | 12.9 | 0.00 | 8.15 | 1.78 | 58 | 1013.4 |
| 20260506164020 | 14 | 245 | 8.0 | 17.7 | 0.00 | 8.15 | 1.78 | 59 | 1013.4 |
| 20260506163530 | 13 | 266 | 6.4 | 11.3 | 0.00 | 8.15 | 1.78 | 60 | 1013.5 |
| 20260506163022 | 13 | 261 | 6.4 | 11.3 | 0.00 | 8.15 | 1.78 | 63 | 1013.5 |
| 20260506162532 | 12 | 248 | 6.4 | 11.3 | 0.00 | 8.15 | 1.78 | 61 | 1013.4 |
| 20260506162024 | 12 | 116 | 6.4 | 11.3 | 0.00 | 8.15 | 1.78 | 61 | 1013.3 |
| 20260506161517 | 12 | 123 | 4.8 | 8.0 | 0.00 | 8.15 | 1.78 | 63 | 1013.3 |
| 20260506161027 | 12 | 348 | 6.4 | 11.3 | 0.00 | 8.15 | 1.78 | 65 | 1013.5 |
| 20260506160520 | 12 | 251 | 6.4 | 14.5 | 0.00 | 8.15 | 1.78 | 68 | 1013.5 |
| 20260506160029 | 12 | 117 | 6.4 | 14.5 | 0.00 | 8.15 | 1.78 | 68 | 1013.5 |
| 20260506155523 | 12 | 237 | 6.4 | 12.9 | 0.00 | 8.15 | 1.78 | 67 | 1013.5 |
| 20260506155032 | 13 | 282 | 11.3 | 16.1 | 0.00 | 8.15 | 1.78 | 66 | 1013.5 |
| 20260506154524 | 13 | 304 | 8.0 | 12.9 | 0.00 | 8.15 | 1.78 | 70 | 1013.4 |
| 20260506154016 | 12 | 26 | 4.8 | 9.7 | 0.00 | 8.15 | 1.78 | 69 | 1013.4 |
| 20260506153526 | 12 | 346 | 4.8 | 9.7 | 0.00 | 8.15 | 1.78 | 70 | 1013.1 |
| 20260506153018 | 12 | 273 | 8.0 | 11.3 | 0.00 | 8.15 | 1.78 | 72 | 1013.1 |
| 20260506152528 | 11 | 254 | 6.4 | 11.3 | 0.00 | 8.15 | 1.78 | 75 | 1012.9 |
| 20260506152020 | 11 | 296 | 8.0 | 12.9 | 0.00 | 8.15 | 1.78 | 76 | 1012.8 |
| 20260506151530 | 11 | 287 | 8.0 | 12.9 | 0.00 | 8.15 | 1.78 | 76 | 1012.7 |
| 20260506151023 | 11 | 292 | 6.4 | 17.7 | 0.00 | 8.18 | 1.78 | 80 | 1012.6 |
| 20260506150527 | 10 | 267 | 3.2 | 8.0 | 0.00 | 8.18 | 1.78 | 82 | 1012.6 |
| 20260506150025 | 10 | 275 | 6.4 | 12.9 | 0.00 | 8.18 | 1.78 | 82 | 1012.8 |
| 20260506145517 | 10 | 309 | 6.4 | 11.3 | 0.00 | 8.18 | 1.78 | 85 | 1012.9 |
| 20260506145021 | 9 | 288 | 4.8 | 8.0 | 0.00 | 8.18 | 1.78 | 86 | 1012.7 |
| 20260506144520 | 9 | 293 | 8.0 | 11.3 | 0.00 | 8.18 | 1.78 | 85 | 1012.6 |
| 20260506144019 | 9 | 277 | 4.8 | 11.3 | 0.00 | 8.18 | 1.78 | 84 | 1012.6 |
| 20260506143516 | 9 | 253 | 6.4 | 11.3 | 0.00 | 8.18 | 1.78 | 83 | 1012.6 |
| 20260506143032 | 9 | 276 | 8.0 | 11.3 | 0.00 | 8.18 | 1.78 | 85 | 1012.6 |
| 20260506142524 | 8 | 324 | 6.4 | 12.9 | 0.00 | 8.18 | 1.78 | 87 | 1012.6 |
| 20260506142016 | 9 | 301 | 6.4 | 11.3 | 0.00 | 8.18 | 1.78 | 86 | 1012.6 |
| 20260506141526 | 9 | 271 | 4.8 | 9.7 | 0.00 | 8.18 | 1.78 | 84 | 1012.4 |
| 20260506141019 | 9 | 294 | 6.4 | 11.3 | 0.00 | 8.18 | 1.78 | 86 | 1012.1 |
| 20260506140529 | 8 | 280 | 6.4 | 9.7 | 0.00 | 8.18 | 1.78 | 85 | 1012.1 |
| 20260506140021 | 8 | 298 | 6.4 | 11.3 | 0.00 | 8.18 | 1.78 | 88 | 1012.1 |
| 20260506135531 | 8 | 263 | 6.4 | 11.3 | 0.00 | 8.18 | 1.78 | 87 | 1012.1 |
| 20260506135023 | 8 | 252 | 4.8 | 9.7 | 0.00 | 8.18 | 1.78 | 87 | 1012.1 |
| 20260506134515 | 8 | 266 | 3.2 | 8.0 | 0.00 | 8.18 | 1.78 | 89 | 1012.1 |
| 20260506134025 | 7 | 351 | 4.8 | 8.0 | 0.00 | 8.18 | 1.78 | 92 | 1012.1 |
| 20260506133517 | 7 | 29 | 4.8 | 9.7 | 0.00 | 8.18 | 1.78 | 94 | 1012.1 |
| 20260506133027 | 7 | 280 | 4.8 | 6.4 | 0.00 | 8.18 | 1.78 | 93 | 1012.1 |
| 20260506132519 | 7 | 298 | 4.8 | 8.0 | 0.00 | 8.18 | 1.78 | 94 | 1012.2 |
| 20260506132029 | 7 | 298 | 6.4 | 12.9 | 0.00 | 8.18 | 1.78 | 95 | 1012.3 |
| 20260506131522 | 7 | 275 | 3.2 | 6.4 | 0.00 | 8.18 | 1.78 | 97 | 1012.2 |
| 20260506131032 | 7 | 289 | 3.2 | 6.4 | 0.00 | 8.18 | 1.78 | 99 | 1012.1 |
| 20260506130524 | 7 | 310 | 1.6 | 6.4 | 0.00 | 8.18 | 1.78 | 99 | 1012.1 |
| 20260506130016 | 7 | 277 | 3.2 | 4.8 | 0.00 | 8.18 | 1.78 | 99 | 1012.0 |
| 20260506125526 | 6 | 272 | 1.6 | 3.2 | 0.00 | 8.18 | 1.78 | 99 | 1011.9 |
| 20260506125019 | 6 | 285 | 3.2 | 6.4 | 0.00 | 8.18 | 1.78 | 99 | 1011.8 |
| 20260506124529 | 6 | 270 | 1.6 | 6.4 | 0.00 | 8.18 | 1.78 | 99 | 1011.6 |
| 20260506124017 | 6 | 274 | 3.2 | 4.8 | 0.00 | 8.18 | 1.78 | 99 | 1011.6 |
| 20260506123526 | 6 | 259 | 1.6 | 3.2 | 0.00 | 8.18 | 1.78 | 99 | 1011.3 |
| 20260506123017 | 6 | 242 | 1.6 | 4.8 | 0.00 | 8.18 | 1.78 | 99 | 1011.3 |
| 20260506122527 | 6 | 255 | 1.6 | 8.0 | 0.00 | 8.18 | 1.78 | 99 | 1011.3 |
| 20260506122019 | 6 | 225 | 0.0 | 3.2 | 0.00 | 8.18 | 1.78 | 99 | 1011.3 |
| 20260506121523 | 6 | 307 | 1.6 | 4.8 | 0.00 | 8.18 | 1.78 | 99 | 1011.3 |
| 20260506121021 | 5 | 209 | 1.6 | 4.8 | 0.00 | 8.18 | 1.78 | 99 | 1011.2 |
| 20260506120520 | 5 | 288 | 1.6 | 6.4 | 0.00 | 8.18 | 1.78 | 99 | 1011.2 |
| 20260506120017 | 5 | 270 | 3.2 | 6.4 | 0.00 | 8.18 | 1.78 | 99 | 1011.1 |
| 20260506115517 | 5 | 90 | 1.6 | 3.2 | 0.00 | 8.18 | 1.78 | 99 | 1011.0 |
| 20260506115032 | 5 | 70 | 1.6 | 4.8 | 0.00 | 8.18 | 1.78 | 99 | 1010.8 |
| 20260506114525 | 5 | 298 | 1.6 | 4.8 | 0.00 | 8.18 | 1.78 | 99 | 1010.7 |
| 20260506114016 | 5 | 278 | 1.6 | 6.4 | 0.00 | 8.18 | 1.78 | 99 | 1010.7 |
| 20260506113527 | 5 | 259 | 1.6 | 4.8 | 0.00 | 8.18 | 1.78 | 99 | 1010.3 |
| 20260506113019 | 5 | 0.0 | 1.6 | 0.00 | 8.18 | 1.78 | 99 | 1010.3 | |
| 20260506112529 | 5 | 113 | 0.0 | 3.2 | 0.00 | 8.18 | 1.78 | 99 | 1010.1 |
| 20260506112021 | 5 | 252 | 3.2 | 4.8 | 0.00 | 8.18 | 1.78 | 99 | 1010.0 |
| 20260506111531 | 5 | 203 | 0.0 | 3.2 | 0.00 | 8.18 | 1.78 | 99 | 1010.0 |
| 20260506111023 | 5 | 236 | 0.0 | 4.8 | 0.00 | 8.18 | 1.78 | 99 | 1010.0 |
| 20260506110515 | 5 | 0.0 | 0.0 | 0.00 | 8.18 | 1.78 | 99 | 1010.0 | |
| 20260506110027 | 5 | 0.0 | 0.0 | 0.00 | 8.18 | 1.78 | 99 | 1010.0 | |
| 20260506105518 | 5 | 0.0 | 0.0 | 0.00 | 8.18 | 1.78 | 99 | 1010.0 | |
| 20260506105028 | 5 | 98 | 1.6 | 4.8 | 0.00 | 8.18 | 1.78 | 99 | 1010.1 |
| 20260506104520 | 5 | 90 | 0.0 | 3.2 | 0.00 | 8.18 | 1.78 | 99 | 1010.2 |
| 20260506104030 | 5 | 90 | 1.6 | 4.8 | 0.00 | 8.18 | 1.78 | 99 | 1010.2 |
| 20260506103523 | 5 | 287 | 1.6 | 4.8 | 0.00 | 8.18 | 1.78 | 99 | 1009.7 |
| 20260506103033 | 5 | 0.0 | 3.2 | 0.00 | 8.18 | 1.78 | 99 | 1009.7 | |
| 20260506102525 | 5 | 212 | 0.0 | 4.8 | 0.00 | 8.18 | 1.78 | 99 | 1009.5 |
| 20260506102017 | 5 | 291 | 3.2 | 8.0 | 0.00 | 8.18 | 1.78 | 99 | 1009.3 |
| 20260506101527 | 5 | 276 | 1.6 | 3.2 | 0.00 | 8.18 | 1.78 | 99 | 1009.4 |
| 20260506101019 | 5 | 174 | 0.0 | 3.2 | 0.00 | 8.18 | 1.78 | 99 | 1009.5 |
| 20260506100529 | 5 | 113 | 0.0 | 3.2 | 0.00 | 8.18 | 1.78 | 99 | 1009.5 |
| 20260506100021 | 5 | 184 | 3.2 | 4.8 | 0.00 | 8.18 | 1.78 | 99 | 1009.5 |
| 20260506095531 | 5 | 227 | 0.0 | 4.8 | 0.00 | 8.18 | 1.78 | 99 | 1009.5 |
| 20260506095023 | 5 | 172 | 1.6 | 6.4 | 0.00 | 8.18 | 1.78 | 99 | 1009.4 |
| 20260506094527 | 5 | 78 | 1.6 | 6.4 | 0.00 | 8.18 | 1.78 | 99 | 1009.3 |
| 20260506094024 | 5 | 83 | 1.6 | 3.2 | 0.00 | 8.20 | 1.78 | 99 | 1009.3 |
| 20260506093516 | 5 | 286 | 3.2 | 6.4 | 0.00 | 8.23 | 1.78 | 99 | 1008.6 |
| 20260506093019 | 5 | 270 | 1.6 | 4.8 | 0.03 | 8.23 | 1.78 | 99 | 1008.6 |
| 20260506092518 | 5 | 168 | 1.6 | 6.4 | 0.03 | 8.26 | 1.78 | 99 | 1009.0 |
| 20260506092017 | 5 | 144 | 1.6 | 3.2 | 0.05 | 8.28 | 1.78 | 99 | 1009.3 |
| 20260506091520 | 5 | 273 | 3.2 | 6.4 | 0.05 | 8.33 | 1.78 | 99 | 1009.1 |
| 20260506091030 | 5 | 257 | 3.2 | 6.4 | 0.05 | 8.38 | 1.78 | 99 | 1008.7 |
| 20260506090523 | 5 | 270 | 0.0 | 3.2 | 0.08 | 8.46 | 1.78 | 99 | 1008.7 |
| 20260506090033 | 5 | 180 | 0.0 | 4.8 | 0.08 | 8.48 | 1.78 | 99 | 1008.2 |
| 20260506085525 | 5 | 90 | 1.6 | 4.8 | 0.10 | 8.48 | 1.78 | 99 | 1008.1 |
| 20260506085017 | 5 | 107 | 4.8 | 4.8 | 0.10 | 8.48 | 1.78 | 99 | 1008.6 |
| 20260506084527 | 5 | 111 | 4.8 | 4.8 | 0.10 | 8.48 | 1.78 | 99 | 1008.9 |
| 20260506084020 | 5 | 128 | 1.6 | 3.2 | 0.10 | 8.48 | 1.78 | 99 | 1008.9 |
| 20260506083529 | 5 | 220 | 0.0 | 3.2 | 0.10 | 8.48 | 1.78 | 99 | 1009.1 |
| 20260506083023 | 5 | 18 | 1.6 | 4.8 | 0.08 | 8.46 | 1.75 | 99 | 1009.1 |
| 20260506082532 | 5 | 90 | 1.6 | 4.8 | 0.08 | 8.46 | 1.75 | 99 | 1009.0 |
| 20260506082024 | 5 | 0.0 | 0.0 | 0.05 | 8.43 | 1.73 | 99 | 1008.9 | |
| 20260506081516 | 5 | 158 | 0.0 | 3.2 | 0.05 | 8.43 | 1.73 | 99 | 1009.0 |
| 20260506081026 | 5 | 113 | 1.6 | 4.8 | 0.05 | 8.43 | 1.73 | 99 | 1009.0 |
| 20260506080518 | 5 | 147 | 3.2 | 6.4 | 0.05 | 8.41 | 1.70 | 99 | 1009.0 |
| 20260506073525 | 6 | 0.0 | 4.8 | 0.20 | 8.38 | 1.68 | 99 | 1008.6 | |
| 20260506073017 | 6 | 72 | 3.2 | 9.7 | 0.25 | 8.38 | 1.68 | 99 | 1008.6 |
| 20260506072527 | 6 | 99 | 4.8 | 8.0 | 0.33 | 8.38 | 1.68 | 99 | 1008.7 |
| 20260506072019 | 6 | 153 | 3.2 | 6.4 | 0.36 | 8.38 | 1.68 | 99 | 1008.8 |
| 20260506071529 | 6 | 121 | 3.2 | 4.8 | 0.38 | 8.38 | 1.68 | 99 | 1008.8 |
| 20260506071021 | 6 | 113 | 3.2 | 6.4 | 0.41 | 8.38 | 1.68 | 99 | 1008.9 |
| 20260506070526 | 6 | 103 | 1.6 | 6.4 | 0.38 | 8.36 | 1.65 | 99 | 1008.9 |
| 20260506062015 | 6 | 328 | 3.2 | 6.4 | 0.56 | 8.03 | 1.32 | 99 | 1009.1 |
| 20260506061525 | 6 | 119 | 1.6 | 4.8 | 0.61 | 8.00 | 1.30 | 99 | 1009.0 |
| 20260506061017 | 6 | 336 | 3.2 | 4.8 | 0.66 | 7.98 | 1.27 | 99 | 1008.7 |
| 20260506060529 | 6 | 215 | 1.6 | 4.8 | 0.71 | 7.98 | 1.27 | 99 | 1008.7 |
| 20260506051026 | 6 | 173 | 1.6 | 3.2 | 0.58 | 7.32 | 0.61 | 99 | 1009.1 |
| 20260506050518 | 6 | 124 | 3.2 | 4.8 | 0.53 | 7.26 | 0.56 | 99 | 1009.1 |
| 20260506045031 | 6 | 46 | 1.6 | 6.4 | 0.53 | 7.21 | 0.51 | 99 | 1008.9 |
| 20260506044523 | 6 | 122 | 1.6 | 6.4 | 0.53 | 7.21 | 0.51 | 99 | 1009.0 |
| 20260506044033 | 6 | 0.0 | 3.2 | 0.53 | 7.19 | 0.48 | 99 | 1009.0 | |
| 20260506043525 | 6 | 132 | 3.2 | 6.4 | 0.48 | 7.11 | 0.41 | 99 | 1009.1 |
| 20260506043019 | 6 | 144 | 3.2 | 4.8 | 0.43 | 7.06 | 0.36 | 99 | 1009.1 |
| 20260506042528 | 6 | 103 | 3.2 | 4.8 | 0.36 | 6.99 | 0.28 | 99 | 1009.3 |
| 20260506042020 | 6 | 90 | 1.6 | 4.8 | 0.28 | 6.91 | 0.20 | 99 | 1009.5 |
| 20260506041524 | 6 | 126 | 3.2 | 6.4 | 0.18 | 6.81 | 0.10 | 99 | 1009.4 |
| 20260506041023 | 6 | 106 | 1.6 | 6.4 | 0.13 | 6.73 | 0.03 | 99 | 1008.9 |
| 20260506040522 | 7 | 101 | 4.8 | 9.7 | 0.15 | 6.73 | 0.03 | 99 | 1008.9 |
| 20260506040029 | 7 | 104 | 3.2 | 6.4 | 0.15 | 6.71 | 0.00 | 99 | 1009.0 |
| 20260506035518 | 7 | 146 | 3.2 | 4.8 | 0.20 | 6.71 | 6.71 | 99 | 1009.0 |
| 20260506035016 | 7 | 83 | 3.2 | 4.8 | 0.20 | 6.68 | 6.68 | 99 | 1008.8 |
| 20260506034528 | 7 | 105 | 4.8 | 8.0 | 0.23 | 6.68 | 6.68 | 99 | 1008.6 |
| 20260506034018 | 7 | 145 | 3.2 | 8.0 | 0.30 | 6.65 | 6.65 | 99 | 1008.6 |
| 20260506033528 | 7 | 103 | 3.2 | 8.0 | 0.33 | 6.63 | 6.63 | 99 | 1008.5 |
| 20260506033020 | 7 | 113 | 4.8 | 9.7 | 0.41 | 6.63 | 6.63 | 99 | 1008.5 |
| 20260506032530 | 7 | 101 | 4.8 | 8.0 | 0.48 | 6.63 | 6.63 | 99 | 1008.6 |
| 20260506032022 | 7 | 117 | 4.8 | 9.7 | 0.58 | 6.63 | 6.63 | 99 | 1008.6 |
| 20260506031533 | 7 | 112 | 4.8 | 8.0 | 0.61 | 6.63 | 6.63 | 99 | 1008.7 |
| 20260506031025 | 7 | 118 | 3.2 | 6.4 | 0.61 | 6.60 | 6.60 | 99 | 1008.7 |
| 20260506030517 | 7 | 102 | 6.4 | 9.7 | 0.61 | 6.58 | 6.58 | 99 | 1008.7 |
| 20260506030027 | 7 | 113 | 6.4 | 9.7 | 0.61 | 6.55 | 6.55 | 99 | 1009.2 |
| 20260506025519 | 7 | 110 | 6.4 | 9.7 | 0.56 | 6.50 | 6.50 | 99 | 1009.3 |
| 20260506025029 | 7 | 108 | 3.2 | 4.8 | 0.58 | 6.48 | 6.48 | 99 | 1009.3 |
| 20260506024521 | 7 | 112 | 3.2 | 4.8 | 0.58 | 6.45 | 6.45 | 99 | 1009.5 |
| 20260506024031 | 7 | 103 | 3.2 | 6.4 | 0.53 | 6.35 | 6.35 | 99 | 1009.5 |
| 20260506023524 | 7 | 114 | 3.2 | 4.8 | 0.53 | 6.30 | 6.30 | 99 | 1009.5 |
| 20260506023016 | 7 | 100 | 3.2 | 6.4 | 0.53 | 6.22 | 6.22 | 99 | 1009.5 |
| 20260506022526 | 8 | 146 | 3.2 | 6.4 | 0.53 | 6.15 | 6.15 | 99 | 1009.6 |
| 20260506022019 | 8 | 94 | 3.2 | 6.4 | 0.51 | 6.05 | 6.05 | 99 | 1009.7 |
| 20260506021529 | 8 | 79 | 1.6 | 8.0 | 0.58 | 6.02 | 6.02 | 99 | 1009.6 |
| 20260506021021 | 8 | 313 | 4.8 | 8.0 | 0.66 | 5.99 | 5.99 | 99 | 1009.3 |
| 20260506020531 | 8 | 225 | 4.8 | 8.0 | 0.76 | 5.97 | 5.97 | 99 | 1009.3 |
| 20260506020021 | 8 | 125 | 4.8 | 8.0 | 0.81 | 5.94 | 5.94 | 99 | 1009.3 |
| 20260506015531 | 8 | 41 | 1.6 | 3.2 | 0.89 | 5.94 | 5.94 | 99 | 1009.3 |
| 20260506015023 | 8 | 144 | 3.2 | 4.8 | 0.89 | 5.89 | 5.89 | 99 | 1009.4 |
| 20260506014517 | 8 | 109 | 1.6 | 6.4 | 0.89 | 5.87 | 5.87 | 99 | 1009.5 |
| 20260506014025 | 8 | 108 | 1.6 | 4.8 | 0.86 | 5.82 | 5.82 | 99 | 1009.5 |
| 20260506013518 | 8 | 108 | 1.6 | 6.4 | 0.84 | 5.77 | 5.77 | 99 | 1009.5 |
| 20260506013022 | 8 | 209 | 1.6 | 4.8 | 0.79 | 5.69 | 5.69 | 99 | 1009.5 |
| 20260506012520 | 8 | 139 | 1.6 | 3.2 | 0.74 | 5.61 | 5.61 | 99 | 1009.4 |
| 20260506012018 | 8 | 169 | 1.6 | 4.8 | 0.74 | 5.54 | 5.54 | 99 | 1009.3 |
| 20260506011516 | 8 | 154 | 3.2 | 8.0 | 0.71 | 5.44 | 5.44 | 99 | 1009.3 |
| 20260506011032 | 8 | 275 | 3.2 | 6.4 | 0.76 | 5.33 | 5.33 | 99 | 1009.1 |
| 20260506010524 | 9 | 126 | 3.2 | 8.0 | 0.76 | 5.21 | 5.21 | 99 | 1009.1 |
| 20260506010017 | 9 | 302 | 3.2 | 8.0 | 0.81 | 5.13 | 5.13 | 99 | 1009.0 |
| 20260506005527 | 9 | 90 | 1.6 | 3.2 | 0.91 | 5.05 | 5.05 | 99 | 1008.9 |
| 20260506005020 | 9 | 133 | 3.2 | 6.4 | 1.09 | 5.00 | 5.00 | 99 | 1008.9 |
| 20260506004529 | 9 | 113 | 3.2 | 6.4 | 1.37 | 4.98 | 4.98 | 99 | 1008.8 |
| 20260506004021 | 9 | 107 | 3.2 | 6.4 | 1.63 | 4.95 | 4.95 | 99 | 1008.8 |
| 20260506003532 | 10 | 258 | 6.4 | 9.7 | 1.93 | 4.93 | 4.93 | 99 | 1008.7 |
| 20260506003024 | 10 | 225 | 4.8 | 8.0 | 2.36 | 4.90 | 4.90 | 99 | 1008.7 |
| 20260506002516 | 10 | 99 | 3.2 | 4.8 | 2.64 | 4.88 | 4.88 | 99 | 1008.6 |
| 20260506002026 | 10 | 135 | 4.8 | 4.8 | 2.79 | 4.80 | 4.80 | 99 | 1008.4 |
| 20260506001518 | 10 | 115 | 3.2 | 6.4 | 2.84 | 4.72 | 4.72 | 99 | 1008.4 |
| 20260506001028 | 10 | 149 | 3.2 | 4.8 | 2.77 | 4.57 | 4.57 | 99 | 1008.3 |
| 20260506000521 | 10 | 261 | 3.2 | 6.4 | 2.69 | 4.45 | 4.45 | 99 | 1008.3 |
| 20260506000031 | 11 | 39 | 3.2 | 8.0 | 2.62 | 4.32 | 4.32 | 99 | 1008.3 |
| 20260505235523 | 11 | 211 | 1.6 | 3.2 | 2.49 | 4.14 | 4.14 | 99 | 1008.3 |
| 20260505235016 | 11 | 163 | 4.8 | 6.4 | 2.29 | 3.91 | 3.91 | 99 | 1008.3 |
| 20260505234525 | 11 | 113 | 4.8 | 8.0 | 2.01 | 3.61 | 3.61 | 99 | 1008.2 |
| 20260505234017 | 12 | 133 | 4.8 | 11.3 | 1.73 | 3.33 | 3.33 | 99 | 1008.2 |
| 20260505233523 | 13 | 313 | 6.4 | 14.5 | 1.42 | 3.00 | 3.00 | 99 | 1007.7 |
| 20260505233032 | 14 | 285 | 8.0 | 11.3 | 0.97 | 2.54 | 2.54 | 99 | 1007.7 |
| 20260505232525 | 14 | 246 | 6.4 | 8.0 | 0.66 | 2.24 | 2.24 | 99 | 1007.8 |
| 20260505232017 | 14 | 239 | 4.8 | 6.4 | 0.43 | 2.01 | 2.01 | 99 | 1007.8 |